Wind_Speed
10 10 10 9 7 7 6 4 3 3 2 3 3 4 5 5 4 4 4 3 3 4 4 4 4 3 3 4 4 4 3 3 2 1 1 2 2 3 3 2 2 2 3 3
12 12 12 11 9 8 8 6 5 5 4 4 3 5 5 4 4 3 3 2 1 2 3 3 3 3 2 2 2 3 3 3 3 2 2 2 3 3 4 4 3 4 5 5
13 12 12 12 11 10 8 7 8 7 7 6 5 4 5 4 3 3 3 3 2 1 1 2 2 2 3 2 2 3 3 3 3 3 3 3 3 3 4 4 4 6 6 6
15 14 13 12 12 11 10 9 9 9 8 7 7 6 5 5 4 4 5 5 4 3 3 2 3 2 3 3 4 4 4 4 4 4 5 5 6 6 6 5 5 6 8 8
16 15 14 13 12 12 12 11 10 10 9 9 8 9 7 7 6 5 7 6 4 4 4 4 4 4 4 5 5 5 5 6 6 6 7 7 8 8 8 8 7 8 9 8
17 16 15 13 13 13 13 12 11 10 10 10 9 10 8 7 7 6 7 7 6 6 6 6 6 5 6 6 7 7 7 8 9 9 9 9 10 10 10 10 11 11 10 10
17 16 15 15 14 13 13 13 13 12 11 11 11 12 10 9 8 8 7 7 8 9 8 7 8 8 7 8 8 9 9 9 10 10 10 10 10 10 10 10 11 11 12 12
18 17 15 15 15 14 13 14 14 14 13 12 12 12 11 10 10 9 8 8 10 11 10 9 10 10 10 10 11 11 11 11 11 11 11 11 11 11 12 12 12 12 12 12
19 18 17 16 15 16 15 15 15 15 15 14 14 13 12 11 11 10 10 10 11 11 11 11 10 10 11 11 12 12 12 13 14 14 13 12 12 13 13 13 13 13 13 13
21 20 19 19 18 18 17 16 17 17 18 18 16 15 13 12 12 13 12 12 12 11 11 11 11 11 12 12 13 13 13 13 13 14 14 13 13 13 14 15 15 15 16 16
24 22 21 21 21 20 20 19 19 19 19 19 19 17 15 14 14 15 15 15 13 13 13 12 13 13 14 14 13 13 14 14 14 13 12 13 14 15 15 16 16 16 17 17
25 25 24 23 23 22 23 22 22 21 20 20 20 18 16 16 16 17 16 16 15 15 15 15 15 15 15 15 15 15 15 15 15 15 16 16 16 17 17 17 18 18 19 19
26 27 26 25 25 24 24 24 24 24 23 23 23 20 18 18 18 19 19 18 18 18 18 17 16 16 15 16 16 16 16 16 17 18 18 18 18 18 19 19 20 20 21 20
27 28 28 27 26 25 25 25 25 25 25 25 25 23 20 20 20 20 20 21 21 21 21 21 20 19 17 18 18 18 18 18 19 20 20 20 20 20 21 21 22 22 22 23
28 29 28 28 27 27 27 27 27 28 28 28 26 25 24 23 23 23 23 23 23 23 23 22 21 20 19 19 19 20 20 20 20 21 21 22 23 24 23 23 24 24 25 25
31 30 30 30 29 28 29 28 28 29 30 30 30 29 27 27 27 26 25 25 25 25 24 23 23 22 21 21 22 22 21 22 22 23 23 24 25 26 26 26 26 26 27 28
33 32 32 32 31 30 31 29 29 30 31 31 31 30 29 29 29 28 26 26 26 26 25 25 25 25 24 23 23 24 25 24 24 24 25 25 26 27 27 27 28 29 30 30
35 34 34 34 33 34 32 30 30 31 31 31 32 32 32 31 30 29 28 27 28 27 27 26 26 26 25 25 26 26 27 26 25 25 26 27 27 28 29 29 30 31 31 31
35 35 35 35 35 36 34 32 31 31 32 31 32 32 32 31 31 30 29 29 29 28 28 28 27 27 27 27 28 28 28 27 27 27 28 28 29 29 30 31 31 32 33 32
35 36 36 36 36 37 35 33 33 34 34 32 32 32 32 32 32 31 30 30 29 29 29 29 29 28 28 28 29 30 29 29 29 29 30 30 30 30 31 32 32 33 33 33
35 34 35 35 36 37 35 35 34 35 35 33 33 33 33 33 33 32 31 31 31 30 30 30 29 28 29 30 30 31 31 31 31 31 31 31 31 32 32 32 32 32 32 32
35 35 36 35 35 35 34 35 35 35 35 34 33 33 33 33 32 32 32 31 31 31 31 31 31 30 30 31 31 32 32 32 32 33 33 33 32 32 34 34 34 33 33 33
35 36 37 37 35 34 35 35 34 34 34 34 34 34 33 33 33 32 32 32 32 31 31 31 31 32 32 32 32 33 33 34 35 35 35 35 34 34 35 35 35 34 34 34
34 34 36 35 35 35 35 34 34 34 35 35 35 34 33 33 33 33 33 33 33 33 32 32 32 32 32 32 32 32 33 34 35 36 36 36 35 36 36 36 37 37 35 35
34 34 36 35 35 36 35 34 34 35 35 35 35 34 33 33 33 33 34 34 35 35 34 33 33 32 32 32 32 33 34 35 36 37 37 36 35 35 35 36 36 35 35 35
32 34 34 34 34 35 35 34 34 34 34 35 34 33 33 32 31 32 33 34 34 34 34 33 33 33 33 34 34 34 35 35 36 37 37 35 35 36 36 35 35 35 35 35
Wind_Direction
210 210 213 220 229 231 229 232 270 293 299 317 335 346 357 14 20 13 10 26 43 48 39 27 24 33 39 51 50 49 46 38 23 10 6 351 349 357 355 345 331 320 315 314
219 217 221 231 241 242 239 240 262 274 279 293 308 323 343 15 17 13 4 7 23 33 28 14 7 3 13 28 25 22 16 9 353 334 327 328 332 341 336 315 305 299 298 299
225 224 226 233 241 244 248 254 268 274 274 280 300 305 318 333 339 331 318 313 310 299 315 326 330 338 342 338 347 334 330 336 328 313 299 302 304 310 313 309 301 298 296 296
224 225 231 237 242 250 258 265 269 270 270 279 289 295 307 317 313 322 316 306 309 301 299 327 322 301 316 329 339 325 318 317 312 309 307 297 294 295 294 294 290 290 292 293
223 227 233 238 242 247 258 265 268 264 267 272 283 293 298 302 313 315 315 315 314 319 318 313 305 298 303 315 321 322 307 305 299 294 294 298 293 291 288 284 285 288 289 292
224 227 232 238 241 249 257 261 265 264 267 270 280 287 291 297 304 307 309 304 307 309 308 306 298 288 290 297 302 308 301 295 294 287 286 291 292 292 288 286 287 289 293 295
225 228 233 238 244 253 257 258 260 264 268 267 272 277 284 295 298 305 311 306 303 304 305 306 303 292 287 291 295 297 297 299 296 291 286 289 292 293 292 291 290 293 294 296
226 228 234 239 245 255 257 257 259 266 268 267 270 277 284 290 294 297 301 303 304 305 306 306 303 296 289 292 294 294 291 294 291 286 284 287 291 294 292 291 294 295 296 298
229 230 233 236 243 250 255 254 258 262 265 268 270 276 281 283 284 291 295 299 303 302 304 302 299 294 290 292 295 295 296 290 282 280 282 283 286 289 292 293 294 294 296 300
232 233 232 236 241 246 252 259 257 261 264 266 270 273 276 281 287 295 300 300 298 299 301 299 295 293 292 290 291 292 291 293 288 283 278 280 290 294 295 295 291 291 294 296
236 238 237 239 243 249 253 256 260 262 264 267 272 274 278 282 289 295 299 298 295 295 297 294 289 286 285 287 285 285 288 292 292 291 291 291 292 293 293 293 292 292 293 294
236 240 242 244 246 249 254 255 259 261 265 269 274 277 278 278 284 289 293 293 291 291 293 290 285 284 288 289 285 283 284 288 290 293 293 292 291 291 292 294 292 291 291 293
237 242 246 245 246 249 252 254 257 260 264 268 273 277 278 279 281 283 286 288 289 289 291 291 290 291 292 291 289 287 285 287 289 290 288 288 288 288 290 291 290 290 289 291
241 245 247 249 250 251 252 254 257 261 264 267 272 275 276 279 280 282 282 283 285 285 286 289 291 292 292 292 290 290 292 291 288 287 286 286 287 286 287 288 289 290 291 292
245 247 250 251 252 251 252 254 257 261 264 267 270 272 275 278 281 282 283 283 283 283 285 288 289 291 293 295 295 293 293 292 288 285 284 284 287 285 285 287 288 288 289 290
246 248 250 252 253 251 253 254 256 260 264 266 267 269 274 277 280 281 282 283 283 283 284 286 286 288 292 294 293 294 293 291 289 287 285 285 286 288 285 286 286 286 287 288
247 249 252 253 254 253 253 255 258 260 263 265 267 269 272 275 277 280 281 281 282 283 283 285 285 286 288 289 289 290 292 291 288 287 288 288 288 289 287 286 286 287 288 288
248 250 253 255 254 254 256 258 259 261 263 265 267 269 271 274 275 277 278 278 279 282 285 286 285 285 282 281 283 285 287 289 288 287 289 289 289 289 288 287 287 288 288 288
250 250 253 254 255 256 257 259 260 262 263 265 266 268 270 272 273 275 276 277 278 279 282 285 284 282 282 281 279 280 283 285 286 287 289 290 290 289 288 287 286 287 287 287
250 251 253 254 255 257 259 260 261 262 263 265 266 268 270 271 272 274 276 276 276 277 279 282 283 280 279 279 278 280 283 285 287 287 288 289 289 289 288 288 287 287 286 286
249 250 252 254 257 259 261 262 264 264 266 266 267 269 270 271 273 274 273 273 274 275 277 278 278 277 279 280 278 281 284 284 285 285 287 287 288 288 287 287 286 286 285 285
251 252 253 255 258 260 262 264 266 267 267 267 268 270 271 271 272 273 273 274 275 275 276 275 275 275 277 278 278 279 281 282 284 285 285 286 286 287 286 286 287 287 285 285
253 254 256 256 258 261 263 265 267 268 268 269 270 270 270 270 271 272 272 273 274 274 275 275 275 274 275 276 278 280 279 281 282 283 283 283 284 285 285 285 286 285 286 286
254 255 256 258 258 259 261 263 265 266 268 269 270 271 270 269 269 270 272 273 274 275 275 274 273 273 275 277 279 279 279 279 280 282 283 283 283 283 283 283 283 284 285 287
256 257 256 258 259 259 260 261 263 266 267 268 269 268 268 268 268 268 270 272 273 274 275 276 274 276 278 279 280 280 279 280 281 282 282 283 283 284 285 285 284 285 286 289
257 258 259 260 261 262 262 263 264 265 265 266 266 266 267 268 269 270 272 274 274 275 277 279 278 277 277 279 280 280 281 280 282 284 284 283 285 286 287 286 284 286 287 289
Height
5911 5913 5913 5914 5914 5915 5915 5915 5915 5915 5914 5914 5913 5913 5912 5911 5911 5910 5909 5909 5908 5907 5906 5905 5905 5904 5904 5904 5903 5902 5902 5901 5901 5901 5901 5901 5900 5900 5899 5899 5898 5898 5898 5897
5911 5912 5912 5913 5913 5914 5914 5915 5914 5914 5914 5913 5913 5912 5912 5911 5911 5910 5909 5908 5908 5907 5906 5905 5905 5904 5904 5903 5903 5902 5902 5901 5901 5901 5900 5900 5900 5899 5898 5898 5897 5897 5897 5896
5909 5911 5911 5912 5912 5913 5913 5914 5913 5913 5913 5912 5912 5912 5911 5911 5910 5909 5909 5908 5907 5906 5906 5905 5904 5904 5903 5902 5902 5902 5901 5901 5900 5900 5900 5899 5899 5898 5898 5897 5896 5896 5895 5895
5907 5908 5909 5910 5911 5911 5912 5912 5912 5912 5911 5911 5911 5911 5911 5910 5909 5909 5908 5907 5906 5905 5905 5904 5904 5903 5902 5901 5901 5900 5900 5900 5899 5899 5899 5898 5898 5897 5896 5895 5895 5894 5894 5893
5904 5906 5907 5908 5909 5909 5910 5910 5910 5910 5910 5910 5909 5910 5911 5909 5908 5908 5907 5906 5905 5905 5904 5903 5903 5902 5902 5901 5901 5900 5899 5899 5898 5897 5897 5896 5896 5895 5895 5894 5893 5893 5892 5891
5902 5903 5904 5906 5907 5907 5908 5908 5908 5908 5908 5908 5908 5908 5909 5908 5907 5907 5906 5905 5904 5904 5903 5902 5902 5901 5901 5900 5900 5899 5898 5897 5897 5896 5895 5895 5894 5893 5893 5892 5891 5890 5889 5888
5899 5900 5902 5903 5904 5905 5906 5907 5907 5906 5906 5906 5906 5906 5907 5907 5906 5905 5904 5903 5902 5902 5902 5901 5900 5900 5899 5899 5898 5897 5896 5895 5894 5894 5893 5892 5892 5891 5890 5890 5889 5888 5887 5886
5895 5897 5899 5900 5901 5902 5903 5904 5905 5904 5904 5904 5904 5903 5905 5904 5904 5903 5902 5902 5901 5900 5899 5899 5898 5897 5897 5897 5896 5894 5893 5892 5892 5891 5890 5890 5889 5889 5888 5887 5886 5886 5885 5884
5892 5894 5896 5897 5898 5899 5900 5900 5901 5901 5901 5901 5901 5901 5902 5901 5901 5901 5901 5900 5899 5898 5896 5896 5895 5894 5894 5893 5893 5891 5890 5889 5889 5888 5887 5887 5886 5886 5885 5884 5883 5882 5882 5881
5888 5890 5892 5893 5894 5895 5897 5897 5898 5898 5897 5897 5898 5898 5899 5899 5899 5899 5898 5897 5896 5895 5893 5893 5892 5891 5890 5890 5889 5888 5887 5886 5885 5883 5883 5884 5883 5882 5881 5881 5880 5879 5878 5877
5883 5886 5888 5889 5890 5891 5893 5893 5893 5894 5894 5894 5894 5897 5897 5896 5896 5896 5895 5894 5893 5892 5891 5890 5889 5888 5887 5886 5885 5885 5884 5883 5882 5881 5880 5880 5880 5879 5878 5877 5876 5875 5874 5873
5878 5880 5882 5884 5886 5887 5888 5889 5890 5891 5890 5890 5891 5895 5893 5893 5892 5892 5892 5891 5890 5889 5888 5887 5886 5884 5883 5882 5881 5881 5881 5879 5878 5878 5877 5877 5876 5875 5874 5873 5871 5870 5869 5868
5873 5875 5877 5879 5882 5882 5882 5883 5885 5886 5886 5886 5886 5890 5889 5888 5888 5888 5887 5887 5887 5886 5885 5884 5882 5881 5879 5878 5877 5877 5876 5875 5874 5874 5873 5872 5871 5870 5869 5868 5867 5866 5864 5862
5867 5869 5871 5874 5875 5876 5877 5878 5879 5880 5880 5881 5882 5883 5884 5884 5884 5883 5883 5883 5882 5881 5880 5879 5878 5876 5875 5874 5873 5872 5871 5870 5870 5869 5868 5867 5866 5865 5864 5863 5861 5860 5859 5857
5861 5862 5865 5867 5869 5870 5871 5873 5874 5875 5875 5876 5877 5878 5879 5879 5879 5879 5878 5877 5877 5876 5875 5874 5873 5871 5870 5870 5869 5868 5867 5866 5865 5864 5863 5862 5861 5860 5858 5857 5855 5854 5853 5851
5854 5856 5858 5860 5862 5863 5864 5866 5868 5869 5869 5870 5871 5872 5873 5872 5873 5873 5872 5871 5871 5870 5869 5868 5867 5866 5865 5865 5864 5862 5861 5860 5859 5858 5857 5856 5855 5853 5852 5851 5849 5848 5846 5845
5847 5849 5851 5852 5854 5855 5857 5860 5861 5862 5863 5864 5864 5866 5866 5866 5866 5866 5866 5865 5865 5864 5863 5862 5861 5860 5859 5859 5858 5857 5856 5854 5853 5852 5851 5850 5848 5847 5845 5844 5842 5840 5839 5837
5839 5841 5843 5844 5847 5847 5852 5853 5854 5855 5855 5856 5857 5858 5858 5859 5859 5859 5859 5859 5858 5857 5856 5855 5854 5853 5852 5851 5851 5850 5849 5847 5846 5845 5844 5842 5841 5840 5838 5836 5835 5833 5831 5829
5831 5833 5834 5836 5837 5839 5843 5845 5846 5847 5847 5849 5849 5850 5850 5851 5851 5852 5851 5851 5850 5849 5849 5848 5847 5846 5845 5843 5843 5842 5841 5840 5838 5837 5836 5834 5833 5831 5830 5828 5826 5825 5823 5821
5822 5825 5826 5827 5828 5830 5835 5837 5837 5839 5839 5841 5841 5842 5842 5842 5843 5844 5844 5843 5842 5841 5841 5840 5839 5838 5837 5836 5835 5834 5833 5832 5830 5829 5827 5826 5824 5823 5821 5819 5817 5815 5813 5811
5814 5815 5817 5819 5819 5821 5825 5827 5829 5830 5831 5832 5832 5833 5833 5833 5834 5835 5834 5834 5833 5833 5832 5831 5830 5830 5829 5828 5826 5825 5824 5823 5822 5820 5818 5817 5815 5813 5811 5810 5808 5806 5804 5801
5804 5807 5809 5810 5812 5816 5817 5818 5820 5821 5821 5822 5823 5823 5824 5824 5825 5825 5825 5825 5825 5824 5824 5823 5822 5821 5820 5819 5817 5816 5815 5814 5812 5811 5809 5807 5806 5804 5802 5800 5798 5796 5794 5792
5795 5798 5799 5802 5806 5807 5807 5809 5810 5811 5812 5812 5813 5814 5814 5815 5815 5816 5816 5816 5815 5815 5814 5813 5813 5812 5811 5810 5809 5807 5806 5805 5803 5801 5799 5797 5796 5794 5792 5790 5788 5786 5784 5782
5787 5789 5790 5792 5795 5797 5798 5799 5800 5802 5802 5803 5803 5804 5805 5805 5805 5806 5806 5806 5806 5805 5804 5804 5803 5802 5801 5800 5799 5798 5796 5794 5793 5791 5788 5786 5785 5783 5780 5778 5777 5775 5774 5772
5778 5780 5781 5783 5786 5787 5789 5790 5791 5792 5792 5793 5794 5794 5795 5795 5795 5796 5796 5796 5796 5795 5794 5794 5793 5792 5791 5790 5789 5787 5786 5784 5782 5780 5778 5776 5774 5771 5769 5768 5766 5765 5763 5762
5770 5771 5773 5774 5776 5777 5779 5780 5781 5782 5782 5783 5784 5785 5785 5786 5786 5786 5786 5786 5786 5785 5785 5784 5783 5783 5782 5780 5779 5778 5776 5774 5771 5769 5767 5765 5764 5761 5759 5757 5756 5754 5753 5752